Time,TemperatureF,DewpointF,PressureIn,WindDirection,WindDirectionDegrees,WindSpeedMPH,WindSpeedGustMPH,Humidity,HourlyPrecipIn,Conditions,Clouds,dailyrainin,SoftwareType,DateUTC
2013-03-13 00:03:00,56.0,43.0,30.00,West,260,0.0,1.0,61,0.00,,,0.06,,2013-03-13 04:03:00,
2013-03-13 00:13:00,56.0,43.0,30.00,West,260,0.0,1.0,61,0.00,,,0.06,,2013-03-13 04:13:00,
2013-03-13 00:22:00,56.0,43.0,30.00,West,270,0.0,0.0,61,0.00,,,0.06,,2013-03-13 04:22:00,
2013-03-13 00:32:00,56.0,43.0,30.00,West,260,0.0,1.0,61,0.00,,,0.06,,2013-03-13 04:32:00,
2013-03-13 00:43:00,56.0,43.0,30.00,West,260,0.0,1.0,61,0.00,,,0.06,,2013-03-13 04:43:00,
2013-03-13 00:52:00,56.0,43.0,30.00,West,280,2.0,5.0,62,0.00,,,0.06,,2013-03-13 04:52:00,
2013-03-13 01:02:00,55.0,43.0,30.00,West,265,0.0,2.0,63,0.00,,,0.06,,2013-03-13 05:02:00,
2013-03-13 01:12:00,55.0,43.0,30.00,West,265,0.0,2.0,63,0.00,,,0.06,,2013-03-13 05:12:00,
2013-03-13 01:22:00,55.0,43.0,30.00,West,265,1.0,5.0,63,0.00,,,0.06,,2013-03-13 05:22:00,
2013-03-13 01:32:00,54.0,42.0,30.00,West,275,3.0,5.0,64,0.00,,,0.06,,2013-03-13 05:32:00,
2013-03-13 01:42:00,54.0,42.0,30.00,West,275,3.0,5.0,64,0.00,,,0.06,,2013-03-13 05:42:00,
2013-03-13 01:52:00,54.0,42.0,30.00,West,275,3.0,5.0,64,0.00,,,0.06,,2013-03-13 05:52:00,
2013-03-13 02:02:00,54.0,43.0,30.00,West,270,5.0,6.0,66,0.00,,,0.06,,2013-03-13 06:02:00,
2013-03-13 02:12:00,54.0,43.0,30.00,West,270,5.0,6.0,66,0.00,,,0.06,,2013-03-13 06:12:00,
2013-03-13 02:23:00,54.0,43.0,30.00,West,275,5.0,6.0,66,0.00,,,0.06,,2013-03-13 06:23:00,
2013-03-13 02:32:00,55.0,43.0,30.00,WNW,290,5.0,7.0,65,0.00,,,0.06,,2013-03-13 06:32:00,
2013-03-13 02:42:00,55.0,43.0,30.00,WNW,290,5.0,7.0,65,0.00,,,0.06,,2013-03-13 06:42:00,
2013-03-13 02:52:00,55.0,43.0,30.00,West,280,6.0,7.0,63,0.00,,,0.06,,2013-03-13 06:52:00,
2013-03-13 03:03:00,56.0,42.0,30.00,West,280,7.0,7.0,60,0.00,,,0.06,,2013-03-13 07:03:00,
2013-03-13 03:12:00,56.0,42.0,30.00,West,280,7.0,7.0,60,0.00,,,0.06,,2013-03-13 07:12:00,
2013-03-13 03:22:00,56.0,42.0,30.00,West,280,7.0,7.0,60,0.00,,,0.06,,2013-03-13 07:22:00,
2013-03-13 03:33:00,56.0,41.0,30.00,NW,305,7.0,7.0,57,0.00,,,0.06,,2013-03-13 07:33:00,
2013-03-13 03:42:00,56.0,41.0,30.00,NW,305,7.0,7.0,57,0.00,,,0.06,,2013-03-13 07:42:00,
2013-03-13 03:52:00,55.0,40.0,30.00,WNW,285,7.0,8.0,57,0.00,,,0.06,,2013-03-13 07:52:00,
2013-03-13 04:03:00,55.0,39.0,30.00,WNW,290,7.0,9.0,55,0.00,,,0.06,,2013-03-13 08:03:00,
2013-03-13 04:12:00,55.0,39.0,30.00,WNW,290,7.0,9.0,55,0.00,,,0.06,,2013-03-13 08:12:00,
2013-03-13 04:22:00,55.0,40.0,30.00,NW,305,7.0,7.0,56,0.00,,,0.06,,2013-03-13 08:22:00,
2013-03-13 04:32:00,55.0,39.0,30.00,WNW,300,7.0,8.0,55,0.00,,,0.06,,2013-03-13 08:32:00,
2013-03-13 04:43:00,55.0,39.0,30.00,WNW,300,7.0,8.0,55,0.00,,,0.06,,2013-03-13 08:43:00,
2013-03-13 04:53:00,55.0,39.0,30.00,WNW,300,8.0,9.0,54,0.00,,,0.06,,2013-03-13 08:53:00,
2013-03-13 05:02:00,55.0,38.0,30.00,WNW,300,8.0,10.0,52,0.00,,,0.06,,2013-03-13 09:02:00,
2013-03-13 05:12:00,55.0,38.0,30.00,WNW,300,8.0,10.0,52,0.00,,,0.06,,2013-03-13 09:12:00,
2013-03-13 05:22:00,55.0,38.0,30.00,WNW,300,8.0,10.0,52,0.00,,,0.06,,2013-03-13 09:22:00,
2013-03-13 05:32:00,54.0,36.0,30.03,WNW,300,8.0,8.0,51,0.00,,,0.06,,2013-03-13 09:32:00,
2013-03-13 05:42:00,54.0,36.0,30.03,WNW,300,8.0,8.0,51,0.00,,,0.06,,2013-03-13 09:42:00,
2013-03-13 05:52:00,54.0,36.0,30.03,NW,305,6.0,6.0,51,0.00,,,0.04,,2013-03-13 09:52:00,
2013-03-13 06:02:00,53.0,37.0,30.03,WNW,285,6.0,7.0,54,0.00,,,0.04,,2013-03-13 10:02:00,
2013-03-13 06:12:00,53.0,37.0,30.03,WNW,285,6.0,7.0,54,0.00,,,0.04,,2013-03-13 10:12:00,
2013-03-13 06:22:00,53.0,36.0,30.06,NW,305,6.0,7.0,53,0.00,,,0.04,,2013-03-13 10:22:00,
2013-03-13 06:32:00,53.0,37.0,30.06,WNW,295,6.0,7.0,54,0.00,,,0.04,,2013-03-13 10:32:00,
2013-03-13 06:42:00,53.0,37.0,30.06,WNW,295,6.0,7.0,54,0.00,,,0.04,,2013-03-13 10:42:00,
2013-03-13 06:52:00,53.0,37.0,30.06,WNW,295,6.0,6.0,54,0.00,,,0.04,,2013-03-13 10:52:00,
2013-03-13 07:02:00,52.0,36.0,30.06,WNW,295,6.0,6.0,54,0.00,,,0.04,,2013-03-13 11:02:00,
2013-03-13 07:12:00,52.0,36.0,30.06,WNW,295,6.0,6.0,54,0.00,,,0.04,,2013-03-13 11:12:00,
2013-03-13 07:22:00,52.0,36.0,30.06,WNW,295,6.0,6.0,54,0.00,,,0.04,,2013-03-13 11:22:00,
2013-03-13 07:32:00,52.0,36.0,30.09,NW,305,6.0,6.0,54,0.00,,,0.04,,2013-03-13 11:32:00,
2013-03-13 07:42:00,52.0,36.0,30.09,NW,305,6.0,6.0,54,0.00,,,0.04,,2013-03-13 11:42:00,
2013-03-13 07:52:00,52.0,36.0,30.09,WNW,295,6.0,8.0,55,0.00,,,0.04,,2013-03-13 11:52:00,
2013-03-13 08:02:00,52.0,36.0,30.09,WNW,300,8.0,8.0,54,0.00,,,0.04,,2013-03-13 12:02:00,
2013-03-13 08:12:00,52.0,36.0,30.09,WNW,300,8.0,8.0,54,0.00,,,0.04,,2013-03-13 12:12:00,
2013-03-13 08:22:00,52.0,36.0,30.09,WNW,300,8.0,8.0,54,0.00,,,0.04,,2013-03-13 12:22:00,
2013-03-13 08:32:00,52.0,36.0,30.12,WNW,300,8.0,9.0,54,0.00,,,0.03,,2013-03-13 12:32:00,
2013-03-13 08:42:00,52.0,36.0,30.12,WNW,300,8.0,9.0,54,0.00,,,0.03,,2013-03-13 12:42:00,
2013-03-13 08:53:00,52.0,35.0,30.12,WNW,300,8.0,10.0,53,0.00,,,0.03,,2013-03-13 12:53:00,
2013-03-13 09:02:00,52.0,35.0,30.12,WNW,295,8.0,8.0,52,0.00,,,0.03,,2013-03-13 13:02:00,
2013-03-13 09:12:00,52.0,35.0,30.12,WNW,295,8.0,8.0,52,0.00,,,0.03,,2013-03-13 13:12:00,
2013-03-13 09:22:00,52.0,35.0,30.12,NW,305,7.0,8.0,52,0.00,,,0.01,,2013-03-13 13:22:00,
2013-03-13 09:33:00,53.0,35.0,30.15,WNW,300,8.0,8.0,50,0.00,,,0.01,,2013-03-13 13:33:00,
2013-03-13 09:43:00,53.0,35.0,30.15,WNW,300,8.0,8.0,50,0.00,,,0.01,,2013-03-13 13:43:00,
2013-03-13 09:52:00,53.0,35.0,30.15,NW,310,8.0,9.0,50,0.00,,,0.01,,2013-03-13 13:52:00,
2013-03-13 10:03:00,54.0,34.0,30.15,WNW,290,6.0,7.0,47,0.00,,,0.01,,2013-03-13 14:03:00,
2013-03-13 10:12:00,54.0,34.0,30.15,WNW,290,6.0,7.0,47,0.00,,,0.01,,2013-03-13 14:12:00,
2013-03-13 10:22:00,54.0,34.0,30.15,NW,320,6.0,8.0,47,0.00,,,0.01,,2013-03-13 14:22:00,
2013-03-13 10:33:00,55.0,32.0,30.15,North,350,5.0,5.0,41,0.00,,,0.01,,2013-03-13 14:33:00,
2013-03-13 10:42:00,55.0,32.0,30.15,North,350,5.0,5.0,41,0.00,,,0.01,,2013-03-13 14:42:00,
2013-03-13 10:52:00,55.0,32.0,30.15,North,350,5.0,5.0,41,0.00,,,0.01,,2013-03-13 14:52:00,
2013-03-13 11:03:00,57.0,30.0,30.15,North,0,3.0,5.0,35,0.00,,,0.01,,2013-03-13 15:03:00,
2013-03-13 11:12:00,57.0,30.0,30.15,North,0,3.0,5.0,35,0.00,,,0.01,,2013-03-13 15:12:00,
2013-03-13 11:22:00,58.0,31.0,30.15,NW,325,3.0,5.0,35,0.00,,,0.01,,2013-03-13 15:22:00,
2013-03-13 11:32:00,58.0,32.0,30.15,WNW,295,3.0,5.0,37,0.00,,,0.01,,2013-03-13 15:32:00,
2013-03-13 11:43:00,58.0,32.0,30.15,WNW,295,3.0,5.0,37,0.00,,,0.01,,2013-03-13 15:43:00,
2013-03-13 11:52:00,59.0,31.0,30.15,WNW,295,5.0,5.0,35,0.00,,,0.01,,2013-03-13 15:52:00,
2013-03-13 12:03:00,60.0,32.0,30.15,WNW,285,5.0,6.0,35,0.00,,,0.01,,2013-03-13 16:03:00,
2013-03-13 12:12:00,60.0,32.0,30.15,WNW,285,5.0,6.0,35,0.00,,,0.01,,2013-03-13 16:12:00,
2013-03-13 12:22:00,60.0,32.0,30.15,WNW,290,5.0,5.0,34,0.00,,,0.01,,2013-03-13 16:22:00,
2013-03-13 12:32:00,61.0,32.0,30.15,WNW,295,6.0,8.0,33,0.00,,,0.00,,2013-03-13 16:32:00,
2013-03-13 12:42:00,61.0,32.0,30.15,WNW,295,6.0,8.0,33,0.00,,,0.00,,2013-03-13 16:42:00,
2013-03-13 12:52:00,61.0,32.0,30.15,WNW,295,6.0,6.0,33,0.00,,,0.00,,2013-03-13 16:52:00,
2013-03-13 13:03:00,63.0,30.0,30.15,NW,315,5.0,5.0,29,0.00,,,0.00,,2013-03-13 17:03:00,
2013-03-13 13:12:00,63.0,30.0,30.15,NW,315,5.0,5.0,29,0.00,,,0.00,,2013-03-13 17:12:00,
2013-03-13 13:22:00,63.0,30.0,30.15,WNW,300,5.0,9.0,29,0.00,,,0.00,,2013-03-13 17:22:00,
2013-03-13 13:33:00,64.0,30.0,30.15,WNW,293,6.0,8.0,28,0.00,,,0.00,,2013-03-13 17:33:00,
2013-03-13 13:42:00,64.0,30.0,30.15,WNW,293,6.0,8.0,28,0.00,,,0.00,,2013-03-13 17:42:00,
2013-03-13 13:53:00,64.0,28.0,30.12,NW,305,8.0,10.0,26,0.00,,,0.00,,2013-03-13 17:53:00,
2013-03-13 14:02:00,64.0,32.0,30.12,WNW,285,8.0,10.0,30,0.00,,,0.00,,2013-03-13 18:02:00,
2013-03-13 14:13:00,64.0,32.0,30.12,WNW,285,8.0,10.0,30,0.00,,,0.00,,2013-03-13 18:13:00,
2013-03-13 14:22:00,64.0,32.0,30.12,WNW,285,8.0,10.0,30,0.00,,,0.00,,2013-03-13 18:22:00,
2013-03-13 14:33:00,67.0,31.0,30.09,WNW,285,6.0,8.0,26,0.00,,,0.00,,2013-03-13 18:33:00,
2013-03-13 14:42:00,67.0,31.0,30.09,WNW,285,6.0,8.0,26,0.00,,,0.00,,2013-03-13 18:42:00,
2013-03-13 14:52:00,67.0,32.0,30.09,WNW,285,6.0,8.0,27,0.00,,,0.00,,2013-03-13 18:52:00,
2013-03-13 15:03:00,68.0,32.0,30.06,WNW,295,5.0,8.0,26,0.00,,,0.00,,2013-03-13 19:03:00,
2013-03-13 15:12:00,68.0,32.0,30.06,WNW,295,5.0,8.0,26,0.00,,,0.00,,2013-03-13 19:12:00,
2013-03-13 15:22:00,68.0,27.0,30.06,West,275,6.0,9.0,21,0.00,,,0.00,,2013-03-13 19:22:00,
2013-03-13 15:32:00,68.0,29.0,30.06,WNW,290,9.0,12.0,23,0.00,,,0.00,,2013-03-13 19:32:00,
2013-03-13 15:43:00,68.0,29.0,30.06,WNW,290,9.0,12.0,23,0.00,,,0.00,,2013-03-13 19:43:00,
2013-03-13 15:52:00,68.0,31.0,30.06,WNW,295,10.0,12.0,25,0.00,,,0.00,,2013-03-13 19:52:00,
2013-03-13 16:02:00,69.0,32.0,30.06,WNW,300,9.0,10.0,25,0.00,,,0.00,,2013-03-13 20:02:00,
2013-03-13 16:12:00,69.0,32.0,30.06,WNW,300,9.0,10.0,25,0.00,,,0.00,,2013-03-13 20:12:00,
2013-03-13 16:22:00,69.0,29.0,30.06,West,270,9.0,13.0,22,0.00,,,0.00,,2013-03-13 20:22:00,
2013-03-13 16:32:00,69.0,26.0,30.06,WNW,290,3.0,3.0,20,0.00,,,0.00,,2013-03-13 20:32:00,
2013-03-13 16:42:00,69.0,26.0,30.06,WNW,290,3.0,3.0,20,0.00,,,0.00,,2013-03-13 20:42:00,
2013-03-13 16:52:00,69.0,30.0,30.06,WNW,300,1.0,1.0,23,0.00,,,0.00,,2013-03-13 20:52:00,
2013-03-13 17:02:00,68.0,29.0,30.06,West,270,2.0,8.0,23,0.00,,,0.00,,2013-03-13 21:02:00,
2013-03-13 17:12:00,68.0,29.0,30.06,West,270,2.0,8.0,23,0.00,,,0.00,,2013-03-13 21:12:00,
2013-03-13 17:22:00,69.0,32.0,30.03,WNW,285,3.0,7.0,25,0.00,,,0.00,,2013-03-13 21:22:00,
2013-03-13 17:34:00,68.0,33.0,30.03,WNW,285,5.0,9.0,27,0.00,,,0.00,,2013-03-13 21:34:00,
2013-03-13 17:42:00,68.0,33.0,30.03,WNW,285,5.0,9.0,27,0.00,,,0.00,,2013-03-13 21:42:00,
2013-03-13 17:52:00,68.0,31.0,30.03,WNW,285,8.0,8.0,25,0.00,,,0.00,,2013-03-13 21:52:00,
2013-03-13 18:02:00,68.0,31.0,30.03,WNW,295,6.0,6.0,25,0.00,,,0.00,,2013-03-13 22:02:00,
2013-03-13 18:12:00,68.0,31.0,30.03,WNW,295,6.0,6.0,25,0.00,,,0.00,,2013-03-13 22:12:00,
2013-03-13 18:22:00,68.0,31.0,30.03,WNW,295,6.0,6.0,25,0.00,,,0.00,,2013-03-13 22:22:00,
2013-03-13 18:32:00,68.0,31.0,30.03,WNW,285,6.0,7.0,25,0.00,,,0.00,,2013-03-13 22:32:00,
2013-03-13 18:42:00,68.0,31.0,30.03,WNW,285,6.0,7.0,25,0.00,,,0.00,,2013-03-13 22:42:00,
2013-03-13 18:52:00,67.0,33.0,30.03,West,275,7.0,10.0,28,0.00,,,0.00,,2013-03-13 22:52:00,
2013-03-13 19:02:00,66.0,29.0,30.03,West,280,10.0,13.0,25,0.00,,,0.00,,2013-03-13 23:02:00,
2013-03-13 19:12:00,66.0,29.0,30.03,West,280,10.0,13.0,25,0.00,,,0.00,,2013-03-13 23:12:00,
2013-03-13 19:22:00,66.0,27.0,30.03,West,275,10.0,14.0,23,0.00,,,0.00,,2013-03-13 23:22:00,
2013-03-13 19:32:00,65.0,28.0,30.06,West,275,9.0,10.0,25,0.00,,,0.00,,2013-03-13 23:32:00,
2013-03-13 19:42:00,65.0,28.0,30.06,West,275,9.0,10.0,25,0.00,,,0.00,,2013-03-13 23:42:00,
2013-03-13 19:52:00,65.0,29.0,30.06,WNW,285,8.0,9.0,26,0.00,,,0.00,,2013-03-13 23:52:00,
2013-03-13 20:02:00,63.0,31.0,30.06,West,265,6.0,6.0,30,0.00,,,0.00,,2013-03-14 00:02:00,
2013-03-13 20:13:00,63.0,31.0,30.06,West,265,6.0,6.0,30,0.00,,,0.00,,2013-03-14 00:13:00,
2013-03-13 20:22:00,63.0,31.0,30.06,West,265,6.0,6.0,30,0.00,,,0.00,,2013-03-14 00:22:00,
2013-03-13 20:32:00,62.0,29.0,30.06,West,275,1.0,0.0,29,0.00,,,0.00,,2013-03-14 00:32:00,
2013-03-13 20:42:00,62.0,29.0,30.06,West,275,1.0,0.0,29,0.00,,,0.00,,2013-03-14 00:42:00,
2013-03-13 20:52:00,61.0,30.0,30.06,West,275,0.0,0.0,31,0.00,,,0.00,,2013-03-14 00:52:00,
2013-03-13 21:03:00,61.0,30.0,30.06,West,275,0.0,0.0,31,0.00,,,0.00,,2013-03-14 01:03:00,
2013-03-13 21:12:00,61.0,30.0,30.06,West,275,0.0,0.0,31,0.00,,,0.00,,2013-03-14 01:12:00,
2013-03-13 21:22:00,61.0,31.0,30.09,West,275,0.0,0.0,32,0.00,,,0.00,,2013-03-14 01:22:00,
2013-03-13 21:32:00,60.0,32.0,30.09,West,270,1.0,5.0,34,0.00,,,0.00,,2013-03-14 01:32:00,
2013-03-13 21:42:00,60.0,32.0,30.09,West,270,1.0,5.0,34,0.00,,,0.00,,2013-03-14 01:42:00,
2013-03-13 21:52:00,60.0,32.0,30.09,West,270,2.0,5.0,34,0.00,,,0.00,,2013-03-14 01:52:00,
2013-03-13 22:02:00,60.0,32.0,30.09,West,270,5.0,5.0,34,0.00,,,0.00,,2013-03-14 02:02:00,
2013-03-13 22:12:00,60.0,32.0,30.09,West,270,5.0,5.0,34,0.00,,,0.00,,2013-03-14 02:12:00,
2013-03-13 22:22:00,60.0,34.0,30.12,West,270,5.0,5.0,38,0.00,,,0.00,,2013-03-14 02:22:00,
2013-03-13 22:33:00,58.0,30.0,30.12,West,270,5.0,5.0,34,0.00,,,0.00,,2013-03-14 02:33:00,
2013-03-13 22:42:00,58.0,30.0,30.12,West,270,5.0,5.0,34,0.00,,,0.00,,2013-03-14 02:42:00,
2013-03-13 22:51:00,58.0,30.0,30.12,West,270,5.0,5.0,34,0.00,,,0.00,,2013-03-14 02:51:00,
2013-03-13 23:02:00,56.0,29.0,30.12,West,270,5.0,5.0,35,0.00,,,0.00,,2013-03-14 03:02:00,
2013-03-13 23:12:00,56.0,29.0,30.12,West,270,5.0,5.0,35,0.00,,,0.00,,2013-03-14 03:12:00,
2013-03-13 23:23:00,56.0,29.0,30.12,West,270,5.0,5.0,35,0.00,,,0.00,,2013-03-14 03:23:00,
2013-03-13 23:32:00,56.0,29.0,30.15,West,270,5.0,5.0,36,0.00,,,0.00,,2013-03-14 03:32:00,
2013-03-13 23:42:00,56.0,29.0,30.15,West,270,5.0,5.0,36,0.00,,,0.00,,2013-03-14 03:42:00,
2013-03-13 23:53:00,56.0,29.0,30.15,West,270,5.0,5.0,36,0.00,,,0.00,,2013-03-14 03:53:00,